Terminal Aerodrome Forecast
Issued by NWS

Home | Current Version | Previous Version | Text Only | Print | Product List | Glossary On
Versions: 1 2 3 4 5 6 7 8 9 10 11 12 13 14 15 16 17 18 19 20 21
000
FTUS45 KTFX 272300
TAFHLN
TAF
KHLN 272339Z 2800/2824 VRB05KT P6SM SCT060 SCT100 WS020/26040KT
     FM280500 VRB05KT P6SM SCT060 BKN100 WS020/30035KT=

USA.gov is the U.S. government's official web portal to all federal, state and local government web resources and services.